FW5640 Weather Reports


time (UTC)temp
C
wind
direction
speed
KPH
gust
KPH
rain 1hr
cm
rain 24hr
cm
rain mn
cm
humidity
%
barometer
mb
20260906124359 26 210 3.2 3.2 0.00 0.00 0.00 91 1012.5
20260906123858 26 190 1.6 1.6 0.00 0.00 0.00 91 1012.6
20260906123353 26 210 1.6 1.6 0.00 0.00 0.00 91 1012.8
20260906122853 26 344 4.8 9.7 0.00 0.00 0.00 91 1012.6
20260906122353 26 290 3.2 3.2 0.00 0.00 0.00 91 1012.3
20260906121850 26 274 3.2 4.8 0.00 0.00 0.00 91 1012.3
20260906121345 26 175 1.6 1.6 0.00 0.00 0.00 91 1012.4
20260906120841 26 219 3.2 3.2 0.00 0.00 0.00 91 1012.4
20260906120337 26 189 1.6 1.6 0.00 0.00 0.00 91 1012.2
20260906115833 26 229 8.0 11.3 0.00 0.00 0.00 91 1012.4
20260906115328 26 296 6.4 8.0 0.00 0.00 0.00 91 1012.3
20260906114827 26 274 1.6 1.6 0.00 0.00 0.00 91 1012.7
20260906114323 26 185 1.6 3.2 0.00 0.00 0.00 91 1012.6
20260906113818 26 211 3.2 4.8 0.00 0.00 0.00 91 1012.6
20260906113317 26 221 3.2 3.2 0.00 0.00 0.00 91 1012.5
20260906112813 26 198 3.2 3.2 0.00 0.00 0.00 91 1012.8
20260906112309 26 244 1.6 1.6 0.00 0.00 0.00 91 1012.7
20260906111809 26 284 1.6 1.6 0.00 0.00 0.00 91 1012.6
20260906111308 26 134 1.6 3.2 0.00 0.00 0.00 91 1012.6
20260906110803 26 177 1.6 1.6 0.00 0.00 0.00 91 1012.4
20260906110259 26 188 1.6 1.6 0.00 0.00 0.00 90 1012.0
20260906105758 26 171 1.6 1.6 0.00 0.00 0.00 90 1012.0
20260906105254 26 239 1.6 1.6 0.00 0.00 0.00 90 1011.6
20260906104749 26 223 1.6 3.2 0.00 0.00 0.00 90 1011.7
20260906104247 26 262 4.8 4.8 0.00 0.00 0.00 90 1011.6
20260906103746 26 185 1.6 1.6 0.00 0.00 0.00 90 1011.6
20260906103246 26 299 1.6 1.6 0.00 0.00 0.00 90 1011.4
20260906102742 26 187 3.2 3.2 0.00 0.00 0.00 90 1011.4
20260906102240 26 179 1.6 1.6 0.00 0.00 0.00 90 1011.4
20260906101736 26 241 3.2 3.2 0.00 0.00 0.00 89 1011.5
20260906101231 26 230 3.2 3.2 0.00 0.00 0.00 90 1011.5
20260906100726 26 201 3.2 3.2 0.00 0.00 0.00 90 1011.4
20260906100226 26 241 4.8 4.8 0.00 0.00 0.00 90 1011.6
20260906095721 26 225 1.6 1.6 0.00 0.00 0.00 90 1011.5
20260906095216 26 180 1.6 1.6 0.00 0.00 0.00 90 1011.3
20260906094714 26 217 3.2 3.2 0.00 0.00 0.00 90 1011.4
20260906094210 26 209 1.6 1.6 0.00 0.00 0.00 90 1011.5
20260906093707 26 291 1.6 3.2 0.00 0.00 0.00 89 1011.6
20260906093202 26 219 1.6 1.6 0.00 0.00 0.00 89 1011.3
20260906092657 26 207 0.0 0.0 0.00 0.00 0.00 89 1011.4
20260906092156 26 183 3.2 3.2 0.00 0.00 0.00 89 1011.4
20260906091653 26 206 1.6 1.6 0.00 0.00 0.00 89 1011.2
20260906091149 26 227 4.8 4.8 0.00 0.00 0.00 89 1011.2
20260906090645 26 324 3.2 3.2 0.00 0.00 0.00 89 1011.0
20260906090144 26 307 3.2 4.8 0.00 0.00 0.00 89 1011.0
20260906085643 26 301 8.0 9.7 0.00 0.00 0.00 89 1010.8
20260906085138 26 194 3.2 3.2 0.00 0.00 0.00 89 1011.3
20260906084638 26 324 3.2 3.2 0.00 0.00 0.00 89 1011.1
20260906084137 26 194 3.2 3.2 0.00 0.00 0.00 89 1011.2
20260906083632 26 177 1.6 1.6 0.00 0.00 0.00 89 1011.2
20260906083127 26 112 1.6 1.6 0.00 0.00 0.00 89 1011.1
20260906082623 26 220 1.6 1.6 0.00 0.00 0.00 89 1011.2
20260906082118 26 224 3.2 3.2 0.00 0.00 0.00 89 1011.1
20260906081614 26 358 8.0 11.3 0.00 0.00 0.00 89 1011.3
20260906081108 26 162 1.6 1.6 0.00 0.00 0.00 89 1011.4
20260906080606 26 284 3.2 3.2 0.00 0.00 0.00 89 1011.2
20260906075555 26 222 1.6 1.6 0.00 0.00 0.00 88 1011.2
20260906075050 27 169 3.2 3.2 0.00 0.00 0.00 88 1011.4
20260906074544 27 234 4.8 9.7 0.00 0.00 0.00 88 1011.2
20260906074042 27 157 3.2 3.2 0.00 0.00 0.00 88 1011.3
20260906073538 27 181 3.2 3.2 0.00 0.00 0.00 88 1011.4
20260906073029 27 218 1.6 1.6 0.00 0.00 0.00 89 1011.4
20260906072523 27 217 3.2 3.2 0.00 0.00 0.00 89 1011.5
20260906072020 27 184 1.6 1.6 0.00 0.00 0.00 89 1011.4
20260906071515 27 205 6.4 8.0 0.00 0.00 0.00 89 1011.2
20260906071010 27 237 3.2 4.8 0.00 0.00 0.00 89 1011.2
20260906070506 27 236 3.2 3.2 0.00 0.00 0.00 89 1011.2
20260906070002 27 33 1.6 1.6 0.00 0.00 0.00 89 1011.4
20260906065455 27 207 4.8 4.8 0.00 0.00 0.00 89 1011.1
20260906064951 27 124 1.6 3.2 0.00 0.00 0.00 89 1011.3
20260906064447 27 334 3.2 4.8 0.00 0.00 0.00 89 1011.3
20260906063942 27 198 3.2 4.8 0.00 0.00 0.00 89 1011.6
20260906063437 27 255 3.2 4.8 0.00 0.00 0.00 89 1011.5
20260906062932 26 280 4.8 4.8 0.00 0.00 0.00 89 1011.7
20260906062427 26 235 4.8 4.8 0.00 0.00 0.00 89 1011.3
20260906061922 27 217 1.6 3.2 0.00 0.00 0.00 89 1011.6
20260906061418 27 96 1.6 1.6 0.00 0.00 0.00 89 1011.7
20260906060912 27 225 6.4 9.7 0.00 0.00 0.00 89 1011.6
20260906060410 27 214 1.6 1.6 0.00 0.00 0.00 89 1011.8
20260906055906 27 228 6.4 9.7 0.00 0.00 0.00 89 1011.7
20260906055401 27 209 1.6 1.6 0.00 0.00 0.00 89 1011.7
20260906054856 27 188 4.8 8.0 0.00 0.00 0.00 89 1011.7
20260906054351 27 110 1.6 1.6 0.00 0.00 0.00 89 1011.8
20260906053847 27 206 3.2 3.2 0.00 0.00 0.00 89 1011.9
20260906053343 27 206 1.6 1.6 0.00 0.00 0.00 89 1012.1
20260906052838 27 263 1.6 3.2 0.00 0.00 0.00 89 1012.0
20260906052334 27 226 3.2 3.2 0.00 0.00 0.00 90 1012.2
20260906051831 27 204 3.2 3.2 0.00 0.00 0.00 90 1012.0
20260906051330 27 258 3.2 3.2 0.00 0.00 0.00 90 1012.1
20260906050826 27 240 4.8 4.8 0.00 0.00 0.00 90 1012.0
20260906050321 27 179 4.8 8.0 0.00 0.00 0.00 90 1012.0
20260906045820 27 191 1.6 1.6 0.00 0.00 0.00 90 1011.8
20260906045314 27 166 1.6 1.6 0.00 0.00 0.00 89 1012.1
20260906044811 27 250 4.8 4.8 0.00 0.00 0.00 89 1012.1
20260906044305 27 232 3.2 4.8 0.00 0.00 0.00 89 1012.0
20260906043801 27 187 1.6 1.6 0.00 0.00 0.00 89 1012.0
20260906043257 27 202 3.2 3.2 0.00 0.00 0.00 89 1012.0
20260906042757 27 358 3.2 3.2 0.00 0.00 0.00 89 1012.0
20260906042256 27 240 8.0 9.7 0.00 0.00 0.00 89 1012.1
20260906041752 27 226 4.8 8.0 0.00 0.00 0.00 89 1012.2
20260906041247 27 221 6.4 8.0 0.00 0.00 0.00 89 1012.0
20260906040742 27 202 1.6 3.2 0.00 0.00 0.00 89 1012.3
20260906040237 27 199 4.8 8.0 0.00 0.00 0.00 88 1012.2
20260906035732 27 225 4.8 4.8 0.00 0.00 0.00 88 1012.4
20260906035228 27 245 4.8 4.8 0.00 0.00 0.00 88 1012.3
20260906034728 27 149 3.2 3.2 0.00 0.00 0.00 88 1012.6
20260906034223 27 229 3.2 1.6 0.00 0.00 0.00 88 1012.4
20260906033718 27 219 3.2 3.2 0.00 0.00 0.00 87 1012.5
20260906033212 27 196 1.6 1.6 0.00 0.00 0.00 87 1012.7
20260906032710 27 198 4.8 4.8 0.00 0.00 0.00 87 1012.6
20260906032209 27 183 1.6 1.6 0.00 0.00 0.00 87 1013.0
20260906031704 27 177 3.2 4.8 0.00 0.00 0.00 86 1012.7
20260906031200 27 193 1.6 1.6 0.00 0.00 0.00 86 1012.7
20260906030700 27 200 3.2 3.2 0.00 0.00 0.00 86 1012.9
20260906030155 27 223 3.2 3.2 0.00 0.00 0.00 86 1012.8
20260906025654 27 163 3.2 3.2 0.00 0.00 0.00 85 1012.9
20260906025154 27 181 1.6 1.6 0.00 0.00 0.00 85 1012.9
20260906024648 27 213 1.6 3.2 0.00 0.00 0.00 85 1013.0
20260906024147 27 186 3.2 3.2 0.00 0.00 0.00 84 1012.9
20260906023644 27 178 1.6 1.6 0.00 0.00 0.00 84 1013.0
20260906023144 27 167 1.6 1.6 0.00 0.00 0.00 84 1012.9
20260906022638 27 197 4.8 4.8 0.00 0.00 0.00 84 1012.9
20260906022134 27 186 1.6 1.6 0.00 0.00 0.00 83 1012.8
20260906021630 28 161 1.6 1.6 0.00 0.00 0.00 83 1012.8
20260906021128 28 173 3.2 4.8 0.00 0.00 0.00 83 1012.7
20260906020623 28 156 3.2 4.8 0.00 0.00 0.00 83 1012.7
20260906020118 28 190 6.4 8.0 0.00 0.00 0.00 82 1012.7
20260906015612 28 152 1.6 1.6 0.00 0.00 0.00 82 1012.6
20260906015111 28 186 8.0 9.7 0.00 0.00 0.00 83 1012.4
20260906014606 28 203 6.4 9.7 0.00 0.00 0.00 83 1012.5
20260906014102 28 167 8.0 8.0 0.00 0.00 0.00 83 1012.5
20260906013557 28 171 4.8 4.8 0.00 0.00 0.00 83 1012.6
20260906013052 28 199 8.0 8.0 0.00 0.00 0.00 83 1012.5
20260906012548 28 177 6.4 8.0 0.00 0.00 0.00 84 1012.4
20260906012047 28 165 8.0 11.3 0.00 0.00 0.00 84 1012.4
20260906011543 28 148 11.3 14.5 0.00 0.00 0.00 84 1012.3
20260906011043 28 195 12.9 12.9 0.00 0.00 0.00 84 1012.0
20260906010538 28 194 9.7 11.3 0.00 0.00 0.00 84 1012.0
20260906010035 28 173 9.7 12.9 0.00 0.00 0.00 84 1012.0
20260906005534 28 168 12.9 14.5 0.00 0.00 0.00 85 1011.9
20260906005033 28 159 11.3 14.5 0.00 0.00 0.00 85 1011.7
20260906004532 28 170 9.7 12.9 0.00 0.00 0.00 85 1011.9
20260906004027 28 192 9.7 11.3 0.00 0.00 0.00 85 1011.6
20260906003522 28 200 12.9 16.1 0.00 0.00 0.00 85 1011.6
20260906003019 28 177 11.3 12.9 0.00 0.00 0.00 85 1011.7
20260906002513 28 170 8.0 11.3 0.00 0.00 0.00 85 1011.7
20260906002008 28 182 11.3 11.3 0.00 0.00 0.00 85 1011.6
20260906001504 28 178 11.3 11.3 0.00 0.00 0.00 85 1011.4
20260906000958 28 150 8.0 9.7 0.00 0.00 0.00 85 1011.4
20260906000455 28 168 8.0 8.0 0.00 0.00 0.00 85 1011.4
20260905235954 28 180 11.3 12.9 0.00 0.00 0.00 85 1011.6
20260905235448 28 168 6.4 11.3 0.00 0.00 0.00 85 1011.4
20260905234943 28 203 11.3 12.9 0.00 0.00 0.00 85 1011.3
20260905234438 28 192 8.0 9.7 0.00 0.00 0.00 84 1011.4
20260905233932 28 152 11.3 12.9 0.00 0.00 0.00 83 1011.5
20260905233428 28 179 12.9 16.1 0.00 0.00 0.00 83 1011.5
20260905232927 28 206 14.5 20.9 0.00 0.00 0.00 83 1011.6
20260905232423 28 178 11.3 12.9 0.00 0.00 0.00 83 1011.3
20260905231918 28 203 12.9 16.1 0.00 0.00 0.00 82 1011.3
20260905231414 28 187 8.0 12.9 0.00 0.00 0.00 82 1011.5
20260905230911 28 182 6.4 8.0 0.00 0.00 0.00 82 1011.6
20260905230409 28 158 16.1 17.7 0.00 0.00 0.00 82 1011.4
20260905225907 28 187 11.3 14.5 0.00 0.00 0.00 82 1011.6
20260905225403 29 190 14.5 17.7 0.00 0.00 0.00 82 1011.7
20260905224857 28 185 14.5 16.1 0.00 0.00 0.00 82 1011.9
20260905224353 29 182 12.9 16.1 0.00 0.00 0.00 82 1011.8
20260905223847 29 175 11.3 16.1 0.00 0.00 0.00 82 1011.8
20260905223345 30 173 4.8 8.0 0.00 0.00 0.00 82 1011.9
20260905222840 29 84 6.4 8.0 0.00 0.00 0.00 83 1012.2
20260905222338 29 173 11.3 14.5 0.00 0.00 0.00 82 1012.0
20260905221835 29 183 11.3 14.5 0.00 0.00 0.00 82 1011.9
20260905221332 29 136 14.5 16.1 0.00 0.00 0.00 82 1011.9
20260905220827 30 188 11.3 12.9 0.00 0.00 0.00 82 1011.9
20260905220323 30 150 11.3 14.5 0.00 0.00 0.00 81 1012.0
20260905215822 30 192 14.5 14.5 0.00 0.00 0.00 81 1012.2
20260905215318 30 168 11.3 12.9 0.00 0.00 0.00 81 1012.2
20260905214814 30 177 12.9 14.5 0.00 0.00 0.00 82 1012.1
20260905214309 30 164 14.5 16.1 0.00 0.00 0.00 82 1012.2
20260905213804 30 167 9.7 14.5 0.00 0.00 0.00 83 1012.3
20260905213301 29 142 16.1 22.5 0.00 0.00 0.00 84 1012.4
20260905212755 30 179 14.5 16.1 0.00 0.00 0.00 84 1012.4
20260905212254 30 173 12.9 12.9 0.00 0.00 0.00 83 1012.4
20260905211749 30 177 11.3 12.9 0.00 0.00 0.00 84 1012.3
20260905211244 30 178 14.5 16.1 0.00 0.00 0.00 84 1012.2
20260905210742 30 206 11.3 14.5 0.00 0.00 0.00 83 1012.2
20260905210240 30 166 12.9 14.5 0.00 0.00 0.00 83 1012.1
20260905205739 30 200 9.7 12.9 0.00 0.00 0.00 83 1012.1
20260905205234 30 147 9.7 12.9 0.00 0.00 0.00 82 1012.2
20260905204734 30 92 4.8 8.0 0.00 0.00 0.00 83 1012.3
20260905204230 30 133 11.3 11.3 0.00 0.00 0.00 82 1012.0
20260905203729 30 185 8.0 11.3 0.00 0.00 0.00 82 1012.1
20260905203225 30 180 12.9 17.7 0.00 0.00 0.00 81 1011.9
20260905202720 30 132 9.7 14.5 0.00 0.00 0.00 83 1012.1
20260905202215 30 116 11.3 14.5 0.00 0.00 0.00 83 1011.9
20260905201710 29 113 9.7 9.7 0.00 0.00 0.00 83 1012.0
20260905201205 29 118 9.7 11.3 0.00 0.00 0.00 83 1012.0
20260905200700 30 116 8.0 9.7 0.00 0.00 0.00 82 1011.9
20260905200155 30 96 8.0 11.3 0.00 0.00 0.00 81 1012.1
20260905195654 30 103 4.8 4.8 0.00 0.00 0.00 82 1012.0
20260905195149 30 177 8.0 9.7 0.00 0.00 0.00 81 1012.0
20260905194644 30 128 8.0 9.7 0.00 0.00 0.00 81 1011.9
20260905194144 30 142 11.3 11.3 0.00 0.00 0.00 81 1012.2
20260905193638 30 170 8.0 9.7 0.00 0.00 0.00 80 1012.1
20260905193133 30 122 11.3 12.9 0.00 0.00 0.00 79 1012.4
20260905192628 30 182 4.8 8.0 0.00 0.00 0.00 79 1012.4
20260905192125 30 126 8.0 9.7 0.00 0.00 0.00 78 1012.7
20260905191624 30 139 6.4 9.7 0.00 0.00 0.00 77 1012.6
20260905191122 31 80 8.0 11.3 0.00 0.00 0.00 75 1012.5
20260905190621 31 108 4.8 4.8 0.00 0.00 0.00 75 1012.5
20260905190121 31 132 6.4 8.0 0.00 0.00 0.00 74 1012.4
20260905185619 31 118 3.2 3.2 0.00 0.00 0.00 75 1012.5
20260905185114 31 122 4.8 4.8 0.00 0.00 0.00 74 1012.6
20260905184609 32 129 6.4 8.0 0.00 0.00 0.00 72 1012.6
20260905184108 33 47 4.8 4.8 0.00 0.00 0.00 66 1012.5
20260905183607 33 313 4.8 4.8 0.00 0.00 0.00 65 1012.6
20260905183102 33 299 4.8 4.8 0.00 0.00 0.00 66 1012.8
20260905182602 32 252 3.2 3.2 0.00 0.00 0.00 68 1012.9
20260905182057 31 278 6.4 8.0 0.00 0.00 0.00 69 1012.9
20260905181557 32 243 4.8 8.0 0.00 0.00 0.00 68 1013.2
20260905181056 32 307 4.8 8.0 0.00 0.00 0.00 68 1013.1
20260905180551 32 304 3.2 4.8 0.00 0.00 0.00 69 1012.9
20260905180046 31 181 3.2 3.2 0.00 0.00 0.00 70 1013.3
20260905175545 31 302 4.8 4.8 0.00 0.00 0.00 71 1013.2
20260905175041 31 297 8.0 8.0 0.00 0.00 0.00 71 1013.3
20260905174536 32 289 8.0 9.7 0.00 0.00 0.00 70 1013.4
20260905174032 32 313 6.4 8.0 0.00 0.00 0.00 71 1013.4
20260905173528 31 344 6.4 8.0 0.00 0.00 0.00 70 1013.6
20260905173023 32 322 8.0 11.3 0.00 0.00 0.00 70 1013.9
20260905172521 31 72 1.6 1.6 0.00 0.00 0.00 72 1013.8
20260905172017 31 277 4.8 4.8 0.00 0.00 0.00 72 1013.8
20260905171514 31 203 3.2 4.8 0.00 0.00 0.00 73 1014.0
20260905171009 31 341 9.7 12.9 0.00 0.00 0.00 73 1014.1
20260905170506 31 278 4.8 3.2 0.00 0.00 0.00 74 1013.8
20260905170000 31 277 6.4 8.0 0.00 0.00 0.00 75 1013.7
20260905165455 31 291 8.0 8.0 0.00 0.00 0.00 75 1014.1
20260905164949 30 203 4.8 3.2 0.00 0.00 0.00 77 1014.3
20260905164444 30 291 6.4 9.7 0.00 0.00 0.00 78 1014.4
20260905163938 31 286 3.2 4.8 0.00 0.00 0.00 78 1014.6
20260905163435 30 216 4.8 8.0 0.00 0.00 0.00 79 1014.9
20260905162931 30 304 6.4 8.0 0.00 0.00 0.00 81 1014.7
20260905162426 30 263 9.7 11.3 0.00 0.00 0.00 82 1015.0
20260905161921 30 277 6.4 9.7 0.00 0.00 0.00 84 1014.8
20260905161420 30 272 3.2 3.2 0.00 0.00 0.00 85 1014.9
20260905160918 30 286 6.4 11.3 0.00 0.00 0.00 86 1015.0
20260905160412 29 271 4.8 3.2 0.00 0.00 0.00 87 1015.2
20260905155906 28 353 4.8 8.0 0.00 0.00 0.00 88 1015.1
20260905155401 28 303 3.2 3.2 0.00 0.00 0.00 89 1015.3
20260905154859 28 288 3.2 3.2 0.00 0.00 0.00 90 1015.3
20260905154355 28 255 6.4 8.0 0.00 0.00 0.00 89 1015.5
20260905153850 28 277 3.2 1.6 0.00 0.00 0.00 89 1015.5
20260905153347 28 284 12.9 17.7 0.00 0.00 0.00 89 1015.5
20260905152847 28 277 3.2 4.8 0.00 0.00 0.00 90 1015.2
20260905152346 28 296 6.4 8.0 0.00 0.00 0.00 90 1015.3
20260905151841 28 244 1.6 3.2 0.00 0.00 0.00 91 1015.6
20260905151337 28 211 1.6 1.6 0.00 0.00 0.00 90 1015.5
20260905150836 28 312 8.0 9.7 0.00 0.00 0.00 89 1015.3
20260905150331 28 214 1.6 1.6 0.00 0.00 0.00 91 1015.4
20260905145829 28 253 1.6 1.6 0.00 0.00 0.00 92 1015.2
20260905145328 28 259 1.6 1.6 0.00 0.00 0.00 92 1015.5
20260905144828 28 243 4.8 4.8 0.00 0.00 0.00 92 1015.3
20260905144323 28 265 8.0 9.7 0.00 0.00 0.00 92 1015.4
20260905143822 28 297 0.0 0.0 0.00 0.00 0.00 93 1015.4
20260905143316 28 237 3.2 3.2 0.00 0.00 0.00 93 1015.3
20260905142815 27 205 1.6 1.6 0.00 0.00 0.00 93 1015.2
20260905142309 27 273 6.4 8.0 0.00 0.00 0.00 93 1015.2
20260905141806 27 309 6.4 8.0 0.00 0.00 0.00 94 1015.2
20260905141301 27 247 1.6 3.2 0.00 0.00 0.00 94 1015.3
20260905140757 27 239 3.2 3.2 0.00 0.00 0.00 95 1015.6
20260905140256 27 195 4.8 4.8 0.00 0.00 0.00 95 1015.5
20260905135755 27 179 3.2 3.2 0.00 0.00 0.00 95 1015.4
20260905135252 27 186 1.6 1.6 0.00 0.00 0.00 95 1015.5
20260905134752 26 265 4.8 3.2 0.00 0.00 0.00 96 1015.4
20260905134251 26 205 1.6 1.6 0.00 0.00 0.00 96 1015.4
20260905133745 26 125 1.6 1.6 0.00 0.00 0.00 96 1015.3
20260905133241 26 197 3.2 1.6 0.00 0.00 0.00 96 1015.5
20260905132740 26 314 4.8 8.0 0.00 0.00 0.00 96 1015.5
20260905132236 26 170 1.6 1.6 0.00 0.00 0.00 96 1015.0
20260905131730 26 204 4.8 8.0 0.00 0.00 0.00 96 1015.1
20260905131226 26 233 3.2 3.2 0.00 0.00 0.00 96 1015.1
20260905130720 26 193 4.8 8.0 0.00 0.00 0.00 96 1015.2
20260905130219 26 193 1.6 1.6 0.00 0.00 0.00 97 1015.1
20260905125715 26 199 1.6 1.6 0.00 0.00 0.00 97 1015.3
20260905125209 26 173 3.2 3.2 0.00 0.00 0.00 96 1015.2
20260905124706 25 199 1.6 3.2 0.00 0.00 0.00 97 1015.2